Regional Weather Roundup
Issued by NWS Cleveland, OH

Home | Current Version | Previous Version | Text Only | Print | Product List | Glossary Off
Versions: 1 2 3 4 5 6 7 8 9 10 11 12 13 14 15 16 17 18 19 20 21 22 23 24 25 26 27 28 29 30 31 32 33 34 35 36 37 38 39 40 41 42 43 44 45 46 47 48 49 50

000
ASUS41 KCLE 241912
RWRCLE
OHIO REGIONAL WEATHER ROUNDUP
NATIONAL WEATHER SERVICE WILMINGTON, OH
200 PM EST SAT FEB 24 2018

NOTE: "FAIR" INDICATES FEW OR NO CLOUDS BELOW 12,000 FEET WITH NO
SIGNIFICANT WEATHER AND/OR OBSTRUCTIONS TO VISIBILITY.

OHZ001>008-015>018-024>027-034-035-043-044-242000-
   NORTHWEST OHIO

CITY           SKY/WX    TMP DP  RH WIND       PRES   REMARKS
DEFIANCE       CLOUDY    40  36  86 NE13G21   30.08F
FINDLAY        CLOUDY    41  36  82 E16       30.07F
TOLEDO EXPRESS CLOUDY    40  33  76 E16       30.10F
TOLEDO EXEC    CLOUDY    39  31  72 E13       30.12F
LIMA           CLOUDY    43  42  97 E15       30.03F
$$

OHZ009>014-019>023-028>033-038-089-242000-
   NORTHEAST OHIO

CITY           SKY/WX    TMP DP  RH WIND       PRES   REMARKS
CLE-HOPKINS    CLOUDY    39  36  89 N15       30.15F
CLE-LAKEFRONT  CLOUDY    36  32  85 N16       30.13F
CUY CO. ARPT   CLOUDY    43  37  81 NE10      30.12F
LORAIN-ELYRIA  LGT RAIN  38  32  79 NE17      30.12F
ASHTABULA      CLOUDY    41  35  79 N7        30.15F
AKRON-CANTON   LGT RAIN  43  40  89 E10       30.08F
WOOSTER        CLOUDY    43  42  97 E9        30.08F
MANSFIELD      LGT RAIN  44  43  96 E12       30.05F
YOUNGSTOWN     LGT RAIN  43  41  93 SE8       30.10F FOG
$$

OHZ042-051>053-060>062-070>072-077>081-242000-
  SOUTHWEST OHIO

CITY           SKY/WX    TMP DP  RH WIND       PRES   REMARKS
CINC-COVINGTON CLOUDY    53  51  93 E9        29.98F
CINC-LUNKEN    CLOUDY    54  51  90 NE6       30.00F
HAMILTON       CLOUDY    52  48  86 E14       29.99F
DAYTON         CLOUDY    48  47  96 E15       30.00F
WRIGHT-PAT AFB CLOUDY    50  46  87 E9        29.99F
DAYTON GENERAL CLOUDY    51  46  83 E12G22    29.97F
WILMINGTON     CLOUDY    50  49  96 E14G21    29.99F
$$

OHZ036-037-039>041-045>050-054>059-063>069-073>076-082>088-242000-
  CENTRAL AND SOUTHEAST OHIO

CITY           SKY/WX    TMP DP  RH WIND       PRES   REMARKS
COLUMBUS       CLOUDY    51  48  89 E10       30.03F
OSU AIRPORT    CLOUDY    49  48  97 E10       30.03F
BOLTON FIELD   CLOUDY    48  46  93 E8        30.04F
RICKENBACK AFB CLOUDY    49  49 100 E10G16    30.03F
NEWARK         CLOUDY    49  46  90 E10       30.02F
MARION         CLOUDY    47  44  90 E9        30.05F
LANCASTER      CLOUDY    49  47  93 E7        30.04F
ZANESVILLE     CLOUDY    49  45  86 NE8       30.05F
NEW PHILLY     LGT RAIN  48  45  89 VRB3      30.09F
$$



USA.gov is the U.S. government's official web portal to all federal, state and local government web resources and services.